This demonstration page uses our WeatherBlox Daily Observations layout. Learn more.

Left ArrowRight Arrow

38.20091, -84.87328

Hourly Observations for July 5, 2021

Temp ( °F °C ) Dew Point ( °F °C ) Humidity (%) Winds ( mph kmh ) Pressure ( in mb ) Visibility ( mi km ) Precip ( " mm )
12:53 am 00:53 Clear 72 22.2 69 20.6 91 91 Calm 30.00 1016 10 16 0.00 0.00
1:53 am 01:53 Clear 73 22.8 69 20.6 87 87 Calm 29.99 1016 10 16 0.00 0.00
2:53 am 02:53 Clear 71 21.7 68 20 90 90 Calm 29.99 1016 8 13 0.00 0.00
3:53 am 03:53 Clear 69 20.6 67 19.4 93 93 Calm 29.99 1016 7 11 0.00 0.00
4:53 am 04:53 Clear with Mist and Fog 70 21.1 67 19.4 90 90 Calm 30.00 1016 5 8 0.00 0.00
5:53 am 05:53 Clear with Mist and Fog 69 20.6 67 19.4 93 93 Calm 30.01 1016 6 10 0.00 0.00
6:53 am 06:53 Sunny with Mist and Fog 67 19.4 66 18.9 97 97 Calm 30.04 1017 3 4 0.00 0.00
7:09 am 07:09 Sunny with Mist and Fog 68 20 66 18.9 93 93 Calm 30.04 1017 4 6 0.00 0.00
7:53 am 07:53 Sunny with Mist and Fog 72 22.2 69 20.6 91 91 Calm 30.04 1017 3 5 0.00 0.00
8:53 am 08:53 Sunny 77 25 71 21.7 82 82 Calm 30.06 1018 7 11 0.00 0.00
9:53 am 09:53 Sunny 82 27.8 71 21.7 69 69 Calm 30.06 1018 10 16 0.00 0.00
10:53 am 10:53 Sunny 84 28.9 70 21.1 63 63 Calm 30.07 1018 10 16 0.00 0.00
11:51 am 11:51 Mostly Cloudy 84 29 72 22 66 66 Calm 30.06 1018 10 16 0.00 0.00
11:53 am 11:53 Mostly Cloudy 84 28.9 71 21.7 65 65 Calm 30.08 1019 10 16 0.00 0.00
12:11 pm 12:11 Mostly Cloudy 85 29.4 70 21.1 61 61 Calm 30.06 1018 10 16 0.00 0.00
12:53 pm 12:53 Partly Cloudy 87 30.6 70 21.1 57 57 VRB 3 6 30.07 1018 10 16 0.00 0.00
1:53 pm 13:53 Mostly Sunny 88 31.1 72 22.2 59 59 SSW 8 13 30.06 1018 10 16 0.00 0.00
2:53 pm 14:53 Mostly Cloudy 87 30.6 71 21.7 59 59 WSW 6 9 30.06 1018 10 16 0.00 0.00
3:53 pm 15:53 Partly Cloudy 87 30.6 70 21.1 57 57 WNW 5 7 30.05 1018 10 16 0.00 0.00
4:53 pm 16:53 Partly Cloudy 90 32.2 71 21.7 54 54 VRB 5 7 30.04 1017 10 16 0.00 0.00
5:53 pm 17:53 Sunny 89 31.7 71 21.7 55 55 W 5 7 30.03 1017 10 16 0.00 0.00
6:53 pm 18:53 Sunny 88 31.1 70 21.1 55 55 W 5 7 30.02 1017 10 16 0.00 0.00
7:53 pm 19:53 Sunny 87 30.6 71 21.7 59 59 Calm 30.02 1017 10 16 0.00 0.00
8:53 pm 20:53 Sunny 82 27.8 74 23.3 77 77 Calm 30.03 1017 10 16 0.00 0.00
9:53 pm 21:53 Clear 79 26.1 73 22.8 82 82 Calm 30.04 1017 10 16 0.00 0.00
10:53 pm 22:53 Clear 77 25 72 22.2 85 85 Calm 30.05 1018 10 16 0.00 0.00
11:53 pm 23:53 Clear 76 24.4 72 22.2 88 88 Calm 30.05 1018 10 16 0.00 0.00

Powered by AerisWeather